Regional Weather Roundup
Issued by NWS Newport/Morehead, NC

Current Version | Previous Version | Text Only | Print | Product List | Glossary Off
Versions: 1 2 3 4 5 6 7 8 9 10 11 12 13 14 15 16 17 18 19 20 21 22 23 24 25 26 27 28 29 30 31 32 33 34 35 36 37 38 39 40 41 42 43 44 45 46 47 48 49 50
000 ASUS42 KMHX 261924 RWRMHX WEATHER ROUNDUP FOR EASTERN NORTH CAROLINA NATIONAL WEATHER SERVICE NEWPORT/MOREHEAD CITY NC 200 PM EST THU FEB 26 2015 NOTE: "FAIR" INDICATES FEW OR NO CLOUDS BELOW 12,000 FEET WITH NO SIGNIFICANT WEATHER AND/OR OBSTRUCTIONS TO VISIBILITY NCZ015>017-031-032-045>047-102-103-262000- NORTH COAST CITY SKY/WX TMP DP RH WIND PRES REMARKS EDENTON CLOUDY 34 32 90 N12 29.86R ELIZABETH CITY NOT AVBL KITTY HAWK CLOUDY 35 35 100 N13G22 29.78R FOG MANTEO CLOUDY 36 34 93 N20G28 29.80R $$ NCZ045>047-081-094-103-104-262000- CENTRAL COAST CITY SKY/WX TMP DP RH WIND PRES REMARKS FRISCO CLOUDY 37 35 92 N10G21 29.76R SWANQUARTER N/A 37 N/A N/A NW3G16 29.79R $$ NCZ095-097-098-100-101-262000- SOUTHERN COAST CITY SKY/WX TMP DP RH WIND PRES REMARKS BEAUFORT CLOUDY 38 35 89 N16 29.82R CEDAR ISLAND N/A 36 N/A N/A NW17 29.85S JACKSONVILLE CLOUDY 38 33 82 N14 29.86R PINEY ISLAND N/A N/A N/A N/A MISG 29.82R WILMINGTON CLOUDY 39 33 79 N10 29.87R $$ NCZ011>013-027>030-043-044-078>080-089-090>093-098-262000- COASTAL PLAIN CITY SKY/WX TMP DP RH WIND PRES REMARKS AHOSKIE CLOUDY 34 31 89 N5 29.88R CLINTON CLOUDY 38 33 83 N6 29.90R ELIZABETHTOWN CLOUDY 38 32 79 N3 29.91R GOLDSBORO CLOUDY 36 36 99 N8 29.87R GREENVILLE CLOUDY 34 32 93 N7 29.91R HAVELOCK CLOUDY 38 33 82 N10 29.85R KENANSVILLE CLOUDY 37 32 84 N8 29.91R KINSTON CLOUDY 36 32 87 N10 29.89R NEW BERN CLOUDY 38 33 82 N10 29.86R RICHLANDS CLOUDY 36 30 80 NW5 29.89R ROCKY MOUNT CLOUDY 35 31 85 N8 29.89 WASHINGTON CLOUDY 35 32 89 N10 29.88R WHITEVILLE CLOUDY 38 33 81 N7 29.89R $$ AMZ130-135-150-152-154-156-158-170-250-252-270-ANZ085-086-088-633-658-670-262000- MARINE OBSERVATIONS STATION/POSITION TIME TEMP WIND PRES WAVE SWELL AIR SEA DIR/SP/G HT/PER HT/PER (UTC) (F) (DEG/KT/KT) (MB) (FT/S) (FT/S) CHESAPEAKE LIGHT 1900 32 10/ 30/ 33 1009.0 64 E VA BEACH 1850 47 56 20/ 29/ 33 1004.8 15/ 9 11/ 9 DUCK 1900 33 34 350/ 25/ 30 1007.9 2 E DUCK 1911 36 N/A 11/ 9 3/11 10 NE DUCK 1822 37 N/A 11/ 8 2/11 OREGON INLET 1900 36 37 330/ 15/ 23 1008.0 HATTERAS CG 1900 36 41 340/ 22/ 26 1008.1 CAPE LOOKOUT 1900 38 350/ 18/ 22 1009.7 BEAUFORT LAB 1900 38 40 360/ 12/ 19 1008.9 27 SE WRIGHTSVLE NOT AVBL 5 SE WRIGHTSVLE NOT AVBL 225 S CAPE HAT 1850 69 71 270/ 21/ 27 1007.3 15/ 9 11/ 9 41 SE CHARLESTON 1850 44 66 330/ 16/ 19 1011.0 6/ 8 5/ 8 $$

USA.gov is the U.S. government's official web portal to all federal, state and local government web resources and services.